Tracking 33750 objects as of 15-Apr-2026
HD Live streaming from Space Station
objects crossing your sky now

CZ-6A DEB

Track CZ-6A DEB now!
10-day predictions


NORAD ID: 55191
Int'l Code: 2022-151VG
Perigee: 783.1 km
Apogee: 853.3 km
Inclination: 98.7 °
Period: 101.1 minutes
Semi major axis: 7189 km
RCS: Unknown
Launch date: November 11, 2022
Source: People's Republic of China (PRC)
Launch site: Taiyaun Space Center, China (TSC)

Note: This is SATELLITE DEBRIS
Your satellite tracking list
Your tracking list is empty




NASA's NSSDC Master Catalog

Two Line Element Set (TLE):
1 55191U 22151VG  26103.53435346  .00000552  00000-0  25508-3 0  9992
2 55191  98.7198 117.2190 0048818 165.9182 194.3370 14.24247917172230
Source of the keplerian elements: AFSPC